Location: Vihti�l�
(61.3833°N, 23.0667°E)
Time: 04:16:20
(UTC+00:00)

Cosmos 1939 Rocket - Pass Details

Date: 29 November 2020
Orbit: 532 x 584 km, 97.4° (Epoch: 19 January)

Event Time Altitude Azimuth Distance (km) Brightness Sun altitude
Rises 05:06:23 0° 19° (NNE) 2,766 6.4 -13.0°
Reaches altitude 10° 05:08:38 10° 27° (NNE) 1,874 5.6 -12.8°
Maximum altitude 05:12:27 39° 97° (E) 872 4.5 -12.4°
Drops below altitude 10° 05:16:18 10° 167° (SSE) 1,887 6.1 -11.9°
Sets 05:18:35 0° 175° (S) 2,788 6.8 -11.7°
